Spokane, WA
on Tuesday, January 15, 2013

Tuesday
Previous Day Next Day
Daily Summary
 ActualAverageRecord
Temperature
Mean Temperature °F 30°F  
Max Temperature 29°F 34°F 51°F (1973)
Min Temperature 12°F 25°F -30°F (1888)
Degree Days
Heating Degree Days 44 35  
Month to date heating degree days 616 549  
Since 1 July heating degree days 3041 3383  
Cooling Degree Days 0 0  
Month to date cooling degree days 0 0  
Year to date cooling degree days 0 0  
Moisture
Dew Point 19°F   
Average Humidity 90    
Maximum Humidity 96    
Minimum Humidity 84    
Precipitation
Precipitation 0.00 in 0.06 in 0.76 in (1971)
Month to date precipitation 1.05 0.95  
Year to date precipitation 1.05 0.95  
Snow
Snow 0.00 in 0.40 in 4.70 in (1956)
Month to date snowfall 11.8 6.7  
Since 1 July snowfall 35.8 28.8  
Snow Depth 2.00 in   
Wind
Wind Speed 1 mph   
Max Wind Speed 10 mph   
Max Gust Speed 13 mph   
Visibility 7 miles   
Events Fog   

Key: T is trace of precipitation, MM is missing value
Source: NWS Daily Summary
Time(PST)TemperatureDew PointHumidity Pressure Visibility Wind DirectionWind SpeedGust SpeedPrecipitationEvents Conditions
12:53 AM 19.0°F 17.1°F 92% 30.51 in 10.0 miles Calm Calm - N/A   Scattered Clouds
1:10 AM 19.4°F 15.8°F 86% 30.40 in 10.0 miles Calm Calm - N/A   Mostly Cloudy
1:53 AM 15.1°F 12.0°F 88% 30.53 in 10.0 miles Calm Calm - N/A   Mostly Cloudy
2:13 AM 15.8°F 12.2°F 86% 30.42 in 8.0 miles Calm Calm - N/A Fog Patches of Fog
2:53 AM 15.8°F 12.2°F 86% 30.42 in 7.0 miles Calm Calm - N/A Fog Patches of Fog
3:53 AM 12.9°F 10.0°F 88% 30.54 in 10.0 miles Calm Calm - N/A   Mostly Cloudy
4:53 AM 15.1°F 12.0°F 88% 30.54 in 10.0 miles Calm Calm - N/A   Mostly Cloudy
5:53 AM 12.9°F 9.0°F 84% 30.56 in 9.0 miles Calm Calm - N/A   Overcast
6:28 AM 15.8°F 12.2°F 86% 30.45 in 8.0 miles Calm Calm - N/A   Overcast
6:53 AM 18.0°F 15.1°F 88% 30.56 in 8.0 miles Calm Calm - N/A   Overcast
7:20 AM 17.6°F 14.0°F 86% 30.46 in 9.0 miles Calm Calm - N/A   Scattered Clouds
7:53 AM 16.0°F 12.9°F 88% 30.59 in 8.0 miles Calm Calm - N/A   Mostly Cloudy
7:55 AM 15.8°F 12.2°F 86% 30.48 in 10.0 miles Calm Calm - N/A   Mostly Cloudy
8:53 AM 15.1°F 12.9°F 91% 30.61 in 10.0 miles Calm Calm - N/A   Overcast
9:53 AM 19.9°F 18.0°F 92% 30.62 in 9.0 miles Calm Calm - N/A   Overcast
10:53 AM 21.9°F 19.0°F 89% 30.63 in 8.0 miles Calm Calm - N/A   Overcast
11:53 AM 26.1°F 23.0°F 88% 30.62 in 8.0 miles Calm Calm - N/A   Overcast
12:44 PM 26.6°F 24.8°F 93% 30.51 in 8.0 miles South 6.9 mph - N/A   Overcast
12:53 PM 27.0°F 24.1°F 89% 30.61 in 7.0 miles South 6.9 mph - N/A   Overcast
1:53 PM 28.0°F 24.1°F 85% 30.62 in 8.0 miles SSE 3.5 mph - N/A   Overcast
2:53 PM 28.0°F 25.0°F 88% 30.63 in 10.0 miles Calm Calm - N/A   Overcast
3:53 PM 28.9°F 25.0°F 85% 30.64 in 10.0 miles SSE 3.5 mph - N/A   Overcast
4:53 PM 28.9°F 26.1°F 89% 30.63 in 10.0 miles Calm Calm - N/A   Overcast
5:53 PM 28.9°F 26.1°F 89% 30.63 in 10.0 miles East 3.5 mph - N/A   Overcast
6:02 PM 28.4°F 26.6°F 93% 30.52 in 7.0 miles East 3.5 mph - N/A   Overcast
6:53 PM 28.0°F 26.1°F 92% 30.62 in 7.0 miles Calm Calm - N/A   Overcast
7:13 PM 28.4°F 24.8°F 86% 30.52 in 7.0 miles Calm Calm - N/A   Overcast
7:53 PM 27.0°F 24.1°F 89% 30.61 in 5.0 miles Calm Calm - N/A   Overcast
8:53 PM 24.1°F 21.9°F 91% 30.62 in 5.0 miles NE 4.6 mph - N/A   Mostly Cloudy
9:53 PM 23.0°F 21.0°F 92% 30.61 in 3.0 miles Calm Calm - N/A   Mostly Cloudy
10:03 PM 23.0°F 19.4°F 86% 30.50 in 1.0 miles Calm Calm - N/A   Scattered Clouds
10:12 PM 21.2°F 19.4°F 93% 30.50 in 0.5 miles Calm Calm - N/A Fog Light Freezing Fog
10:19 PM 19.4°F 17.6°F 93% 30.50 in 0.2 miles Calm Calm - N/A Fog Light Freezing Fog
10:53 PM 19.9°F 18.0°F 92% 30.60 in 0.2 miles Calm Calm - N/A Fog Light Freezing Fog
11:53 PM 21.9°F 21.0°F 96% 30.59 in 0.2 miles Calm Calm - N/A Fog Light Freezing Fog
Moon Phase
Jan. 15 Jan. 18 Jan. 26 Feb. 03 Feb. 10
Sunrise:07:33 AM (PST) Moon Rise:09:19 AM (PST)1/15
Sunset:04:26 PM (PST) Moon Set:09:46 PM (PST)1/15

Copyright © 2014 The Weather Underground, Inc.